{"data":{"norad_id":66734,"epoch":"2026-05-25T04:29:58.466400Z","epoch_age_seconds":58751,"freshness":"FRESH","line1":"1 66734U 25276BW  26145.18748225  .00005456  00000+0  26137-3 0  9994","line2":"2 66734  97.4172 218.9709 0005472  99.8727 260.3125 15.19328994 26923","mean_motion":15.19328994,"eccentricity":0.0005472,"inclination_deg":97.4172,"raan_deg":218.9709,"arg_perigee_deg":99.8727,"mean_anomaly_deg":260.3125,"bstar":0.00026137,"rev_number":2692,"period_min":94.778682279264,"perigee_km":504.09929842348,"apogee_km":511.63534155128,"semimajor_km":6886.0043199874,"source":"CELESTRAK","updated_at":"2026-05-25T13:38:13.373412Z"}}